TimeEDT,TemperatureF,Dew PointF,Humidity,Sea Level PressureIn,VisibilityMPH,Wind Direction,Wind SpeedMPH,Gust SpeedMPH,PrecipitationIn,Events,Conditions,WindDirDegrees,DateUTC
12:15 AM,40.5,36.0,84,29.75,5.0,West,10.4,-,N/A,Rain,Light Rain,270,2012-11-01 04:15:00
12:35 AM,40.5,35.8,83,29.75,7.0,West,10.4,-,N/A,Rain,Light Rain,260,2012-11-01 04:35:00
12:55 AM,40.5,35.6,83,29.75,7.0,West,9.2,-,N/A,Rain,Light Rain,260,2012-11-01 04:55:00
1:15 AM,40.5,35.8,83,29.75,10.0,West,10.4,-,N/A,Rain,Light Rain,260,2012-11-01 05:15:00
1:35 AM,40.5,36.0,84,29.75,5.0,West,11.5,-,N/A,Rain,Light Rain,260,2012-11-01 05:35:00
1:55 AM,40.3,36.0,85,29.75,4.0,West,9.2,-,N/A,Rain,Rain,260,2012-11-01 05:55:00
2:15 AM,40.3,36.1,85,29.75,4.0,WSW,6.9,-,N/A,Rain,Light Rain,250,2012-11-01 06:15:00
2:35 AM,40.3,36.5,86,29.75,5.0,WSW,8.1,-,N/A,Rain,Light Rain,250,2012-11-01 06:35:00
3:15 AM,40.5,36.3,85,29.75,7.0,West,8.1,-,N/A,Rain,Light Rain,260,2012-11-01 07:15:00
3:35 AM,40.6,36.3,85,29.75,5.0,WSW,6.9,-,N/A,Rain,Light Rain,250,2012-11-01 07:35:00
3:55 AM,40.5,36.5,86,29.75,5.0,WSW,8.1,-,N/A,Rain,Light Rain,250,2012-11-01 07:55:00
4:15 AM,40.6,36.5,85,29.75,5.0,WSW,9.2,-,N/A,Rain,Light Rain,250,2012-11-01 08:15:00
4:35 AM,41.0,36.7,85,29.75,5.0,West,10.4,-,N/A,Rain,Light Rain,270,2012-11-01 08:35:00
4:55 AM,41.0,36.7,85,29.75,7.0,West,10.4,-,N/A,Rain,Rain,260,2012-11-01 08:55:00
5:15 AM,41.0,36.7,85,29.75,4.0,West,8.1,-,N/A,Rain,Light Rain,260,2012-11-01 09:15:00
5:35 AM,41.0,36.9,85,29.76,5.0,WSW,9.2,-,N/A,Rain,Rain,250,2012-11-01 09:35:00
5:55 AM,41.0,36.7,85,29.76,5.0,WSW,10.4,-,N/A,Rain,Light Rain,250,2012-11-01 09:55:00
6:15 AM,40.8,36.3,84,29.76,5.0,West,10.4,-,N/A,Rain,Light Rain,260,2012-11-01 10:15:00
6:35 AM,40.5,35.8,83,29.76,5.0,WSW,10.4,-,N/A,Rain,Light Rain,250,2012-11-01 10:35:00
7:15 AM,40.5,36.1,85,29.76,5.0,WSW,10.4,-,N/A,,Haze,250,2012-11-01 11:15:00
7:35 AM,40.6,36.0,83,29.77,7.0,West,8.1,-,N/A,,Overcast,260,2012-11-01 11:35:00
8:35 AM,41.4,35.1,78,29.78,10.0,West,9.2,-,N/A,,Overcast,260,2012-11-01 12:35:00
8:55 AM,41.5,35.1,78,29.79,10.0,West,10.4,-,N/A,,Overcast,260,2012-11-01 12:55:00
9:35 AM,42.3,35.2,76,29.79,10.0,West,12.7,-,N/A,,Overcast,260,2012-11-01 13:35:00
9:55 AM,42.8,35.2,75,29.80,10.0,West,12.7,-,N/A,,Scattered Clouds,260,2012-11-01 13:55:00
10:15 AM,44.4,35.4,71,29.80,10.0,West,12.7,18.4,N/A,,Scattered Clouds,270,2012-11-01 14:15:00
10:35 AM,45.1,34.5,66,29.80,10.0,West,15.0,21.9,N/A,,Scattered Clouds,270,2012-11-01 14:35:00
10:55 AM,45.3,33.4,63,29.80,10.0,West,12.7,-,N/A,,Mostly Cloudy,270,2012-11-01 14:55:00
11:15 AM,45.7,32.4,60,29.80,10.0,WNW,17.3,-,N/A,,Scattered Clouds,290,2012-11-01 15:15:00
11:35 AM,46.0,30.9,56,29.80,10.0,West,17.3,23.0,N/A,,Scattered Clouds,270,2012-11-01 15:35:00
11:55 AM,46.9,29.8,51,29.81,10.0,West,16.1,25.3,N/A,,Scattered Clouds,280,2012-11-01 15:55:00
12:15 PM,47.7,29.3,49,29.81,10.0,West,11.5,-,N/A,,Scattered Clouds,280,2012-11-01 16:15:00
12:35 PM,48.7,28.8,46,29.80,10.0,West,11.5,21.9,N/A,,Scattered Clouds,280,2012-11-01 16:35:00
12:55 PM,48.9,28.6,45,29.80,10.0,West,18.4,-,N/A,,Scattered Clouds,260,2012-11-01 16:55:00
1:15 PM,48.9,28.4,45,29.80,10.0,West,15.0,20.7,N/A,,Scattered Clouds,280,2012-11-01 17:15:00
1:35 PM,49.1,28.9,46,29.79,10.0,West,11.5,17.3,N/A,,Mostly Cloudy,280,2012-11-01 17:35:00
2:15 PM,50.0,28.4,43,29.78,10.0,West,15.0,-,N/A,,Scattered Clouds,270,2012-11-01 18:15:00
2:35 PM,50.2,28.2,43,29.78,10.0,West,12.7,23.0,N/A,,Scattered Clouds,280,2012-11-01 18:35:00
2:55 PM,51.1,28.6,42,29.77,10.0,West,11.5,21.9,N/A,,Scattered Clouds,280,2012-11-01 18:55:00
3:15 PM,51.4,27.9,40,29.77,10.0,West,15.0,23.0,N/A,,Scattered Clouds,270,2012-11-01 19:15:00
3:35 PM,51.4,27.1,39,29.77,10.0,West,17.3,-,N/A,,Clear,270,2012-11-01 19:35:00
4:15 PM,50.2,27.0,41,29.78,10.0,West,16.1,23.0,N/A,,Mostly Cloudy,270,2012-11-01 20:15:00
4:35 PM,50.4,26.1,39,29.77,10.0,West,12.7,-,N/A,,Overcast,270,2012-11-01 20:35:00
4:55 PM,50.4,25.9,39,29.77,10.0,West,12.7,-,N/A,,Overcast,270,2012-11-01 20:55:00
5:15 PM,50.0,25.9,39,29.77,10.0,West,10.4,-,N/A,,Overcast,270,2012-11-01 21:15:00
5:35 PM,50.0,26.1,39,29.78,10.0,West,9.2,-,N/A,,Overcast,280,2012-11-01 21:35:00
5:55 PM,49.8,24.8,38,29.78,10.0,West,11.5,-,N/A,,Overcast,280,2012-11-01 21:55:00
6:15 PM,49.5,23.4,36,29.78,10.0,West,8.1,-,N/A,,Overcast,280,2012-11-01 22:15:00
6:35 PM,48.4,25.2,40,29.78,10.0,West,5.8,-,N/A,,Mostly Cloudy,270,2012-11-01 22:35:00
6:55 PM,46.4,26.8,46,29.79,10.0,West,6.9,-,N/A,,Scattered Clouds,270,2012-11-01 22:55:00
7:15 PM,46.8,27.0,46,29.80,10.0,West,5.8,-,N/A,,Mostly Cloudy,260,2012-11-01 23:15:00
7:35 PM,47.5,25.5,42,29.80,10.0,West,5.8,-,N/A,,Overcast,280,2012-11-01 23:35:00
7:55 PM,47.7,25.5,42,29.81,10.0,WSW,3.5,-,N/A,,Overcast,250,2012-11-01 23:55:00
8:15 PM,46.8,27.3,47,29.81,10.0,WSW,3.5,-,N/A,,Overcast,240,2012-11-02 00:15:00
8:35 PM,46.0,28.8,51,29.81,10.0,WSW,4.6,-,N/A,,Overcast,250,2012-11-02 00:35:00
8:55 PM,44.6,30.0,57,29.81,10.0,SW,3.5,-,N/A,,Overcast,220,2012-11-02 00:55:00
9:15 PM,44.1,30.0,58,29.81,10.0,WSW,5.8,-,N/A,,Overcast,250,2012-11-02 01:15:00
9:35 PM,43.9,30.2,59,29.81,10.0,SSW,5.8,-,N/A,,Overcast,210,2012-11-02 01:35:00
9:55 PM,44.2,30.4,58,29.81,10.0,SW,5.8,-,N/A,,Overcast,230,2012-11-02 01:55:00
10:15 PM,44.2,29.7,57,29.81,10.0,SW,4.6,-,N/A,,Overcast,230,2012-11-02 02:15:00
10:35 PM,43.9,29.7,57,29.82,10.0,SW,4.6,-,N/A,,Overcast,230,2012-11-02 02:35:00
10:55 PM,44.1,29.7,57,29.81,10.0,WSW,4.6,-,N/A,,Overcast,250,2012-11-02 02:55:00
11:15 PM,44.8,29.1,54,29.81,10.0,WSW,4.6,-,N/A,,Overcast,250,2012-11-02 03:15:00
11:35 PM,45.3,28.9,53,29.82,10.0,West,9.2,-,N/A,,Overcast,270,2012-11-02 03:35:00
11:55 PM,46.4,28.9,51,29.81,10.0,West,10.4,16.1,N/A,,Overcast,270,2012-11-02 03:55:00